This is the latest recevied weather packets stored in our database for station/object K5NAN. If no packets are shown the sender has not sent any weather packets the latest 10 day(s).
| Time | Temp. | Humidity | Pressure | Rain* | Wind** | Luminosity | Snow |
|---|---|---|---|---|---|---|---|
| 1777405857 | 25.56° C | 84% | 1008.5 hPa | 0 mm | - | 169 W/m² | - |
| 1777405554 | 26.11° C | 84% | 1008.5 hPa | 0 mm | - | 200 W/m² | - |
| 1777405251 | 26.11° C | 83% | 1008.9 hPa | 0 mm | - | 343 W/m² | - |
| 1777404949 | 26.11° C | 83% | 1009.2 hPa | 0 mm | - | 266 W/m² | - |
| 1777404646 | 26.67° C | 82% | 1009.3 hPa | 0 mm | - | 476 W/m² | - |
| 1777404342 | 26.67° C | 83% | 1009.2 hPa | 0 mm | - | 627 W/m² | - |
| 1777404038 | 26.67° C | 84% | 1009.6 hPa | 0 mm | - | 545 W/m² | - |
| 1777403734 | 26.11° C | 84% | 1009.8 hPa | 0 mm | - | 553 W/m² | - |
| 1777403433 | 26.11° C | 85% | 1009.8 hPa | 0 mm | - | 380 W/m² | - |
| 1777403133 | 26.11° C | 84% | 1009.7 hPa | 0 mm | - | 457 W/m² | - |
| 1777402829 | 26.11° C | 85% | 1010.2 hPa | 0 mm | - | 431 W/m² | - |
| 1777402526 | 26.67° C | 83% | 1010.1 hPa | 0 mm | - | 304 W/m² | - |
| 1777402223 | 26.11° C | 84% | 1010.2 hPa | 0 mm | - | 400 W/m² | - |
| 1777401918 | 26.11° C | 84% | 1010.4 hPa | 0 mm | - | 394 W/m² | - |
| 1777401616 | 26.11° C | 85% | 1010.5 hPa | 0 mm | - | 689 W/m² | - |
| 1777401314 | 26.11° C | 85% | 1010.3 hPa | 0 mm | - | 691 W/m² | - |
| 1777401010 | 26.11° C | 85% | 1010.4 hPa | 0 mm | - | 458 W/m² | - |
| 1777400705 | 26.11° C | 85% | 1010.3 hPa | 0 mm | - | 432 W/m² | - |
| 1777400403 | 26.11° C | 86% | 1010.4 hPa | 0 mm | - | 404 W/m² | - |
| 1777400103 | 26.11° C | 85% | 1010.8 hPa | 0 mm | - | 608 W/m² | - |
| 1777399800 | 25.56° C | 87% | 1010.8 hPa | 0 mm | - | 393 W/m² | - |
| 1777399497 | 25.56° C | 87% | 1010.9 hPa | 0 mm | - | 296 W/m² | - |
| 1777399195 | 25.56° C | 86% | 1011 hPa | 0 mm | - | 282 W/m² | - |
| 1777398891 | 25.56° C | 85% | 1011.1 hPa | 0 mm | - | 227 W/m² | - |
| 1777398589 | 26.11° C | 85% | 1011.2 hPa | 0 mm | - | 392 W/m² | - |
* Rain latest hour (hover to see other rain measurements)
** Current wind speed in m/s (hover to see current wind gust speed)